Rye Patch Reservoir Weather Center

Moon Phase Calendar



Rye Patch Reservoir Water Level
Online Cameras

 


      

Current Conditions in Rose Creek
8/9/2022 4:11:05 PM

82°F
Feels Like 81
Rain
Humidity
38%
Pressure
29.88"
Wind
9.4 mph (SE)
Dew Point
54°F
UV Index
3/10 (Moderate)
Visibility
6 mi

Hourly Forecast

Date & Time Tue, Aug 9
4:00 PM
Tue, Aug 9
5:00 PM
Tue, Aug 9
6:00 PM
Tue, Aug 9
7:00 PM
Tue, Aug 9
8:00 PM
Tue, Aug 9
9:00 PM
Tue, Aug 9
10:00 PM
Tue, Aug 9
11:00 PM
Wed, Aug 10
12:00 AM
Wed, Aug 10
1:00 AM
Wed, Aug 10
2:00 AM
Wed, Aug 10
3:00 AM
Wed, Aug 10
4:00 AM
Wed, Aug 10
5:00 AM
Wed, Aug 10
6:00 AM
Wed, Aug 10
7:00 AM
Wed, Aug 10
8:00 AM
Wed, Aug 10
9:00 AM
Wed, Aug 10
10:00 AM
Wed, Aug 10
11:00 AM
Wed, Aug 10
12:00 PM
Wed, Aug 10
1:00 PM
Wed, Aug 10
2:00 PM
Wed, Aug 10
3:00 PM
Wed, Aug 10
4:00 PM
Wed, Aug 10
5:00 PM
Wed, Aug 10
6:00 PM
Wed, Aug 10
7:00 PM
Wed, Aug 10
8:00 PM
Wed, Aug 10
9:00 PM
Wed, Aug 10
10:00 PM
Wed, Aug 10
11:00 PM
Thu, Aug 11
12:00 AM
Thu, Aug 11
1:00 AM
Thu, Aug 11
2:00 AM
Thu, Aug 11
3:00 AM
Thu, Aug 11
4:00 AM
Thu, Aug 11
5:00 AM
Thu, Aug 11
6:00 AM
Thu, Aug 11
7:00 AM
Thu, Aug 11
8:00 AM
Thu, Aug 11
9:00 AM
Thu, Aug 11
10:00 AM
Thu, Aug 11
11:00 AM
Thu, Aug 11
12:00 PM
Thu, Aug 11
1:00 PM
Thu, Aug 11
2:00 PM
Thu, Aug 11
3:00 PM
Condition
Rain

Clouds

Clouds

Rain

Rain

Clouds

Clouds

Clouds

Clouds

Clouds

Clouds

Clouds

Clouds

Clouds

Clouds

Clouds

Clouds

Clouds

Clouds

Clouds

Clear

Clear

Clouds

Clouds

Clouds

Clouds

Clear

Clear

Clear

Clear

Clouds

Clouds

Clouds

Clouds

Clouds

Clouds

Clouds

Clouds

Clear

Clear

Clear

Clear

Clear

Clear

Clear

Clear

Clear

Clear
Temperature 82°F82°F79°F75°F73°F70°F70°F70°F70°F69°F68°F68°F68°F68°F67°F69°F71°F74°F77°F80°F83°F85°F87°F89°F89°F89°F88°F87°F85°F83°F80°F78°F76°F75°F74°F74°F72°F71°F70°F74°F77°F79°F82°F84°F86°F88°F90°F91°F
Feels Like 81°F81°F79°F75°F72°F70°F70°F70°F70°F69°F68°F68°F68°F67°F67°F69°F71°F74°F77°F80°F82°F84°F85°F86°F86°F86°F85°F84°F82°F81°F80°F77°F75°F73°F72°F71°F70°F69°F68°F71°F75°F79°F79°F81°F83°F85°F86°F87°F
Cloudiness 100%100%100%100%100%100%100%100%100%95%72%77%81%80%56%44%33%43%48%41%1%6%13%18%21%20%7%5%4%6%21%25%55%31%23%18%15%13%0%1%1%0%0%0%0%0%0%0%
Visibility 6 mi6 mi6 mi6 mi6 mi6 mi6 mi6 mi6 mi6 mi6 mi6 mi6 mi6 mi6 mi6 mi6 mi6 mi6 mi6 mi6 mi6 mi6 mi6 mi6 mi6 mi6 mi6 mi6 mi6 mi6 mi6 mi6 mi6 mi6 mi6 mi6 mi6 mi6 mi6 mi6 mi6 mi6 mi6 mi6 mi6 mi6 mi6 mi
Precipitation 70%70%68%85%98%76%75%89%0%0%0%0%0%0%0%0%0%0%0%0%0%0%0%0%0%0%0%0%0%2%2%2%5%1%1%1%0%0%0%0%0%0%0%0%0%0%0%0%
Humidity 38%39%46%55%58%63%62%61%61%64%67%69%70%72%74%69%62%55%47%41%37%33%30%27%26%24%24%24%25%21%16%17%18%19%19%19%19%19%19%18%14%13%13%15%19%21%21%20%
Dew Point 54°F54°F56°F58°F57°F55°F55°F54°F54°F55°F55°F56°F56°F56°F56°F56°F56°F55°F54°F53°F52°F52°F51°F49°F48°F47°F46°F44°F43°F37°F29°F28°F29°F28°F28°F27°F26°F25°F25°F26°F22°F23°F24°F29°F36°F41°F44°F43°F
Pressure 29.88"29.88"29.91"29.94"29.94"30"29.97"30"30"30"30"30"29.97"29.97"30"30"30"30"30"29.97"29.97"29.94"29.94"29.91"29.88"29.88"29.88"29.88"29.91"29.94"30"30"30"30"30"30"30"30"30"30"30"30"30"29.97"29.97"29.94"29.91"29.88"
Wind Speed 9.4 mph10 mph15 mph7.6 mph6.4 mph5.7 mph4.2 mph4.1 mph3.7 mph3 mph2.6 mph2.9 mph4.1 mph3.8 mph3.1 mph3 mph3.6 mph3.6 mph4.4 mph5.3 mph6.6 mph7.7 mph9.7 mph11.5 mph12.3 mph11.9 mph10.3 mph7.4 mph5.4 mph12.2 mph11.5 mph4.2 mph1.4 mph2.2 mph2.2 mph2.2 mph2.3 mph2 mph1.4 mph1.4 mph1.4 mph1.3 mph0.3 mph1.3 mph3.6 mph6.4 mph9.2 mph11.8 mph
Wind
Direction
135°
SE
165°
SSE
246°
WSW
142°
SE
125°
SE
120°
ESE
130°
SE
126°
SE
113°
ESE
133°
SE
130°
SE
150°
SSE
169°
S
171°
S
164°
SSE
159°
SSE
171°
S
177°
S
174°
S
184°
S
200°
SSW
202°
SSW
204°
SSW
209°
SSW
212°
SSW
212°
SSW
222°
SW
253°
WSW
258°
WSW
281°
W
281°
W
279°
W
248°
WSW
288°
WNW
318°
NW
334°
NNW
329°
NNW
322°
NW
330°
NNW

N
332°
NNW
319°
NW
329°
NNW
174°
S
190°
S
193°
SSW
200°
SSW
206°
SSW

Daily Forecast

Date High Low Precip. Humidity
Today
Aug 9

Rain
82 °F
70 °F
98%
39%
Wednesday
Aug 10

Clear
89 °F
67 °F
2%
37%
Thursday
Aug 11

Clear
91 °F
71 °F
5%
15%
Friday
Aug 12

Clouds
93 °F
75 °F
0%
13%
Saturday
Aug 13

Clear
93 °F
71 °F
0%
7%
Sunday
Aug 14

Rain
94 °F
74 °F
50%
9%
Monday
Aug 15

Clear
94 °F
73 °F
3%
24%
Tuesday
Aug 16

Rain
95 °F
75 °F
28%
23%
Wednesday
Aug 17

Rain
94 °F
77 °F
24%
26%
Thursday
Aug 18

Clouds
97 °F
80 °F
0%
21%
Friday
Aug 19

Clear
99 °F
80 °F
0%
24%
Saturday
Aug 20

Clear
101 °F
83 °F
16%
20%
Sunday
Aug 21

Clear
100 °F
80 °F
0%
25%
Monday
Aug 22

Clear
102 °F
83 °F
0%
14%
Tuesday
Aug 23

Clouds
102 °F
81 °F
0%
17%
Wednesday
Aug 24

Rain
103 °F
84 °F
32%
16%

Temperature 8-14 Day Outlook



Precipitation 8-14 Day Outlook




Quick Links
Rye Patch Reservoir News
Rye Patch Reservoir Photos
Rye Patch Reservoir Videos




About Us
Contact Us
Site Map
Search Site
Advertise With Us
   
RyePatch.USLakes.info
THE RYE PATCH RESERVOIR WEBSITE

Copyright 2022, Lakes Online
Privacy    |    Legal